Tracking 17155 objects as of 28-July-2015
HD Live streaming from Space Station

GLOBALSTAR M086

Track GLOBALSTAR M086 now!
10-day predictions
GLOBALSTAR M086 is classified as:


NORAD ID: 38045
Int'l Code: 2011-080F
Perigee: 1,420.6 km
Apogee: 1,420.9 km
Inclination: 52.0 °
Period: 114.1 minutes
Semi major axis: 7791 km
RCS: 4.511 m2 (large)
Launch date: December 28, 2011
Source: Globalstar (GLOB)
Your satellite tracking list
Your tracking list is empty





NASA's NSSDC Master Catalog

Two Line Element Set (TLE):
1 38045U 11080F   15208.45490171 -.00000109  00000-0 -29571-4 0  9997
2 38045 051.9877 201.2881 0000200 211.8574 309.3905 12.62267215167413

Source of the keplerian elements: AFSPC

N2YO: 268